Selawik, AK

9:04 AM AKST on February 24, 2018 (GMT -0900)
Selawik

Weather History for PASK - April, 2014

Change the Weather History Date:

Friday, April 11, 2014

  Actual Average Record
Temperature  
Mean Temperature -2 °F -  
Max Temperature 15 °F 21 °F 37 °F (2004)
Min Temperature -18 °F 7 °F -18 °F (2014)
Degree Days  
Heating Degree Days 66    
Moisture  
Dew Point -4 °F    
Average Humidity 88    
Maximum Humidity 100    
Minimum Humidity 67    
Precipitation  
Precipitation 0.00 in - - ()
Sea Level Pressure  
Sea Level Pressure 30.24 in    
Wind  
Wind Speed 8 mph (ENE)    
Max Wind Speed 14 mph    
Max Gust Speed -    
Visibility 10 miles    
Events      
Averages and records for this station are not official NWS values.
T = Trace of Precipitation, MM = Missing Value Source: NWS Daily Summary

Daily Weather History Graph

Daily Weather History Graph

Search for Another Location

Airport or City:

Trip Planner

Search our weather history database for the weather conditions in past years. The results will help you decide how hot, cold, wet, or windy it might be!

Date:

Astronomy

Apr. 11, 2014 Rise Set
Actual Time 7:11 AM AKDT 10:12 PM AKDT
Civil Twilight 6:11 AM AKDT 11:13 PM AKDT
Nautical Twilight 4:38 AM AKDT 12:49 AM AKDT
Astronomical Twilight Sun does not rise Sun does not rise
Moon 5:49 PM AKDT (4/11) 6:36 AM AKDT (4/11)
Length of Visible Light 17h 02m
Length of Day
15h 00m
Waxing Gibbous, 88% of the Moon is Illuminated
Apr 11
Waxing Gibbous
Apr 14
Full
Apr 21
Last Quarter
Apr 28
New
May 6
First Quarter

Hourly Weather History & Observations

Time (AKDT) Temp. Windchill Dew Point Humidity Pressure Visibility Wind Dir Wind Speed Gust Speed Precip Events Conditions
12:16 AM -2.2 °F -16.8 °F -5.8 °F 85% 30.15 in 10.0 mi WSW 8.1 mph - N/A   Clear
12:36 AM -2.2 °F -16.8 °F -4.0 °F 92% 30.15 in 10.0 mi WSW 8.1 mph - N/A   Clear
12:56 AM -4.0 °F -20.2 °F -7.6 °F 85% 30.15 in 10.0 mi WSW 9.2 mph - N/A   Clear
1:16 AM -5.8 °F -23.4 °F -7.6 °F 92% 30.16 in 10.0 mi WSW 10.4 mph - N/A   Clear
1:36 AM -5.8 °F -22.4 °F -7.6 °F 92% 30.17 in 10.0 mi WSW 9.2 mph - N/A   Clear
1:56 AM -5.8 °F -21.2 °F -7.6 °F 92% 30.17 in 10.0 mi WSW 8.1 mph - N/A   Clear
2:16 AM -4.0 °F -19.0 °F -5.8 °F 92% 30.18 in 10.0 mi WSW 8.1 mph - N/A   Clear
2:36 AM -4.0 °F -20.2 °F -7.6 °F 85% 30.19 in 10.0 mi WSW 9.2 mph - N/A   Clear
2:56 AM -5.8 °F -21.2 °F -7.6 °F 92% 30.19 in 10.0 mi WSW 8.1 mph - N/A   Clear
3:16 AM -5.8 °F -21.2 °F -7.6 °F 92% 30.19 in 5.0 mi WSW 8.1 mph - N/A   Clear
3:36 AM -7.6 °F -22.1 °F -11.2 °F 84% 30.20 in 10.0 mi WSW 6.9 mph - N/A   Clear
3:56 AM -5.8 °F -19.9 °F -5.8 °F 100% 30.20 in 10.0 mi West 6.9 mph - N/A   Clear
4:16 AM -7.6 °F -16.5 °F -13.0 °F 77% 30.21 in 10.0 mi West 3.5 mph - N/A   Clear
4:36 AM -9.4 °F -22.7 °F -13.0 °F 84% 30.21 in 10.0 mi SW 5.8 mph - N/A   Clear
4:56 AM -11.2 °F -24.8 °F -14.8 °F 84% 30.22 in 10.0 mi WSW 5.8 mph - N/A   Clear
5:16 AM -11.2 °F -23.0 °F -14.8 °F 84% 30.22 in 10.0 mi WSW 4.6 mph - N/A   Clear
5:36 AM -11.2 °F -24.8 °F -14.8 °F 84% 30.22 in 10.0 mi WSW 5.8 mph - N/A   Clear
5:56 AM -11.2 °F -23.0 °F -13.0 °F 92% 30.23 in 10.0 mi West 4.6 mph - N/A   Clear
6:16 AM -9.4 °F - -9.4 °F 100% 30.23 in 10.0 mi Calm Calm - N/A   Partly Cloudy
6:36 AM -11.2 °F -20.6 °F -18.4 °F 70% 30.24 in 10.0 mi West 3.5 mph - N/A   Mostly Cloudy
6:56 AM -11.2 °F - -11.2 °F 100% 30.25 in 10.0 mi Calm Calm - N/A   Scattered Clouds
7:16 AM -14.8 °F -24.8 °F -18.4 °F 84% 30.25 in 10.0 mi NNW 3.5 mph - N/A   Mostly Cloudy
7:36 AM -18.4 °F -31.4 °F -22.0 °F 84% 30.25 in 10.0 mi NNE 4.6 mph - N/A   Scattered Clouds
7:56 AM -18.4 °F -31.4 °F -20.2 °F 91% 30.26 in 10.0 mi ENE 4.6 mph - N/A   Clear
8:16 AM -18.4 °F -28.9 °F -18.4 °F 100% 30.26 in 10.0 mi East 3.5 mph - N/A   Clear
8:36 AM -18.4 °F -28.9 °F -18.4 °F 100% 30.26 in 10.0 mi NE 3.5 mph - N/A   Clear
8:56 AM -18.4 °F -28.9 °F -20.2 °F 91% 30.27 in 10.0 mi NE 3.5 mph - N/A   Clear
9:16 AM -16.6 °F -26.8 °F -16.6 °F 100% 30.28 in 10.0 mi NE 3.5 mph - N/A   Clear
9:36 AM -16.6 °F -26.8 °F -16.6 °F 100% 30.28 in 8.0 mi ENE 3.5 mph - N/A   Mostly Cloudy
9:56 AM -14.8 °F - -16.6 °F 92% 30.28 in 5.0 mi Calm Calm - N/A   Mostly Cloudy
10:16 AM -14.8 °F -27.2 °F -14.8 °F 100% 30.29 in 10.0 mi NE 4.6 mph - N/A   Partly Cloudy
10:36 AM -11.2 °F -23.0 °F -11.2 °F 100% 30.29 in 10.0 mi NE 4.6 mph - N/A   Scattered Clouds
10:56 AM -9.4 °F -24.3 °F -9.4 °F 100% 30.29 in 10.0 mi NE 6.9 mph - N/A   Partly Cloudy
11:16 AM -7.6 °F -22.1 °F -9.4 °F 92% 30.29 in 10.0 mi ENE 6.9 mph - N/A   Clear
11:36 AM -7.6 °F -20.6 °F -7.6 °F 100% 30.29 in 10.0 mi ENE 5.8 mph - N/A   Clear
11:56 AM -5.8 °F -21.2 °F -7.6 °F 92% 30.30 in 10.0 mi East 8.1 mph - N/A   Clear
12:16 PM -4.0 °F -17.8 °F -5.8 °F 92% 30.30 in 10.0 mi East 6.9 mph - N/A   Clear
12:36 PM -2.2 °F -15.6 °F -2.2 °F 100% 30.30 in 10.0 mi East 6.9 mph - N/A   Clear
12:56 PM -0.4 °F -14.7 °F -0.4 °F 100% 30.31 in 10.0 mi East 8.1 mph - N/A   Clear
1:16 PM -0.4 °F -15.7 °F -0.4 °F 100% 30.31 in 10.0 mi East 9.2 mph - N/A   Clear
1:36 PM 1.4 °F -13.5 °F 1.4 °F 100% 30.30 in 10.0 mi East 9.2 mph - N/A   Clear
1:56 PM 3.2 °F -11.3 °F 3.2 °F 100% 30.30 in 10.0 mi ENE 9.2 mph - N/A   Clear
2:16 PM 3.2 °F -11.3 °F 3.2 °F 100% 30.30 in 10.0 mi ENE 9.2 mph - N/A   Clear
2:36 PM 5.0 °F -10.0 °F 3.2 °F 92% 30.29 in 10.0 mi ENE 10.4 mph - N/A   Clear
2:56 PM 6.8 °F -8.6 °F 6.8 °F 100% 30.29 in 10.0 mi ENE 11.5 mph - N/A   Clear
3:16 PM 8.6 °F -6.3 °F 6.8 °F 92% 30.29 in 10.0 mi East 11.5 mph - N/A   Clear
3:36 PM 8.6 °F -7.0 °F 6.8 °F 92% 30.28 in 10.0 mi East 12.7 mph - N/A   Clear
3:56 PM 10.4 °F -4.1 °F 6.8 °F 85% 30.28 in 10.0 mi ENE 11.5 mph - N/A   Clear
4:16 PM 12.2 °F -3.1 °F 6.8 °F 79% 30.27 in 10.0 mi ENE 13.8 mph - N/A   Clear
4:36 PM 12.2 °F -2.5 °F 6.8 °F 79% 30.28 in 10.0 mi ENE 12.7 mph - N/A   Clear
4:56 PM 12.2 °F -2.5 °F 8.6 °F 85% 30.26 in 10.0 mi East 12.7 mph - N/A   Clear
5:16 PM 12.2 °F -1.8 °F 8.6 °F 85% 30.26 in 10.0 mi ENE 11.5 mph - N/A   Clear
5:36 PM 14.0 °F 1.2 °F 8.6 °F 79% 30.25 in 10.0 mi ENE 10.4 mph - N/A   Clear
5:56 PM 14.0 °F 0.5 °F 8.6 °F 79% 30.25 in 10.0 mi ENE 11.5 mph - N/A   Clear
6:16 PM 15.8 °F 2.7 °F 10.4 °F 79% 30.25 in 10.0 mi ENE 11.5 mph - N/A   Clear
6:36 PM 15.8 °F 2.7 °F 8.6 °F 73% 30.24 in 10.0 mi ENE 11.5 mph - N/A   Clear
6:56 PM 15.8 °F 2.1 °F 8.6 °F 73% 30.24 in 10.0 mi ENE 12.7 mph - N/A   Clear
7:16 PM 14.0 °F 0.5 °F 8.6 °F 79% 30.24 in 10.0 mi ENE 11.5 mph - N/A   Clear
7:36 PM 14.0 °F 0.5 °F 8.6 °F 79% 30.23 in 10.0 mi ENE 11.5 mph - N/A   Clear
7:56 PM 14.0 °F 0.5 °F 8.6 °F 79% 30.23 in 10.0 mi ENE 11.5 mph - N/A   Clear
8:16 PM 12.2 °F -1.8 °F 6.8 °F 79% 30.22 in 10.0 mi ENE 11.5 mph - N/A   Clear
8:36 PM 12.2 °F -1.8 °F 6.8 °F 79% 30.22 in 10.0 mi ENE 11.5 mph - N/A   Clear
8:56 PM 12.2 °F -1.8 °F 6.8 °F 79% 30.22 in 10.0 mi ENE 11.5 mph - N/A   Clear
9:16 PM 12.2 °F -1.8 °F 5.0 °F 73% 30.21 in 10.0 mi ENE 11.5 mph - N/A   Clear
9:36 PM 10.4 °F -3.3 °F 3.2 °F 73% 30.21 in 10.0 mi ENE 10.4 mph - N/A   Clear
9:56 PM 8.6 °F -6.3 °F 3.2 °F 79% 30.21 in 10.0 mi ENE 11.5 mph - N/A   Clear
10:16 PM 8.6 °F -7.0 °F 1.4 °F 73% 30.21 in 10.0 mi ENE 12.7 mph - N/A   Clear
10:36 PM 8.6 °F -6.3 °F -0.4 °F 67% 30.20 in 10.0 mi ENE 11.5 mph - N/A   Clear
10:56 PM 6.8 °F -6.9 °F -0.4 °F 72% 30.20 in 10.0 mi NE 9.2 mph - N/A   Clear
11:16 PM 6.8 °F -9.3 °F 1.4 °F 79% 30.20 in 10.0 mi ENE 12.7 mph - N/A   Clear
11:36 PM 3.2 °F -11.3 °F -0.4 °F 85% 30.20 in 10.0 mi ENE 9.2 mph - N/A   Clear
11:56 PM 3.2 °F -12.2 °F -0.4 °F 85% 30.20 in 10.0 mi ENE 10.4 mph - N/A   Clear